Location: Freemans Gardens
(41.6414°N, 83.6077°W)
Time: 20:51:08
(UTC+00:00)

H-2A R/B - Pass Details

Date: 29 October 2020
Orbit: 577 x 656 km, 98.5° (Epoch: 25 November)

Event Time Altitude Azimuth Distance (km) Brightness Sun altitude
Rises 23:29:33 0° 359° (N) 2,831 5.4 -11.3°
Reaches altitude 10° 23:32:04 10° 345° (NNW) 1,915 4.7 -11.7°
Maximum altitude 23:35:18 23° 294° (WNW) 1,273 4.4 -12.3°
Drops below altitude 10° 23:38:29 10° 242° (WSW) 1,888 5.7 -12.9°
Sets 23:40:57 0° 227° (SW) 2,779 6.4 -13.4°
